Terug naar catalogus

TORO-3

ActiefWetenschapSSO
NORAD 68481·PAYLOAD·🇹🇼 Taiwan

Gelanceerd Mar 30, 2026 vanaf Vandenberg Space Force Base

Loading…

Volgende Passages (komende 24 uur)

TLE

VersSource: Space-Track

Epoch: Sep 14, 2026, 14:53 UTC

1 68481U 26067BT  26257.62068204  .00001382  00000-0  14101-3 0  9992
2 68481  97.7773 214.7751 0003737  42.5281 317.6227 14.92247819 25066

Volg TORO-3 in realtime met AllMySat

Download on the App Store